Location: Rounton
(54.4000°N, 1.3500°W)
Time: 22:07:29
(UTC+01:00)

deb Delta 126 - Pass Details

Date: 02 July 2022
Orbit: 1120 x 1970 km, 101.5° (Epoch: 17 August)

Event Time Altitude Azimuth Distance (km) Brightness Sun altitude
Rises 02:50:51 0° 58° (ENE) 4,735 ? -9.5°
Reaches altitude 10° 02:54:48 10° 41° (NE) 3,896 ? -9.3°
Maximum altitude 03:00:20 18° 4° (N) 3,480 ? -9.0°
Drops below altitude 10° 03:06:17 10° 328° (NNW) 4,238 ? -8.6°
Sets 03:10:51 0° 312° (NW) 5,325 ? -8.3°
